Weather History for Muscatine, IA

Change the Weather History Date:

Sunday, July 21, 2013

  Actual Average Record
Temperature  
Mean Temperature 74 °F -  
Max Temperature 84 °F 86 °F 101 °F (1983)
Min Temperature 64 °F 66 °F 51 °F (1970)
Cooling Degree Days 9    
Growing Degree Days 24 (Base 50)    
Moisture  
Dew Point 64 °F    
Average Humidity 77    
Maximum Humidity 88    
Minimum Humidity 51    
Precipitation  
Precipitation 0.04 in - - ()
Sea Level Pressure  
Sea Level Pressure 29.89 in    
Wind  
Wind Speed 2 mph (SSE)    
Max Wind Speed 15 mph    
Max Gust Speed 17 mph    
Visibility 10 miles    
Events Rain    
Averages and records for this station are not official NWS values.
T = Trace of Precipitation, MM = Missing Value Source: NWS Daily Summary

Daily Weather History Graph

Daily Weather History Graph

Search for Another Location

Airport:

Trip Planner

Search our weather history database for the weather conditions in past years. The results will help you decide how hot, cold, wet, or windy it might be!

Date:

Astronomy

Jul. 21, 2013 Rise Set
Actual Time 5:49 AM CDT 8:31 PM CDT
Civil Twilight 5:17 AM CDT 9:04 PM CDT
Nautical Twilight 4:36 AM CDT 9:44 PM CDT
Astronomical Twilight 3:50 AM CDT 10:30 PM CDT
Moon 7:29 PM CDT (7/21) 4:35 AM CDT (7/21)
Length of Visible Light 15h 46m
Length of Day
14h 42m
Waxing Gibbous, 98% of the Moon is Illuminated
Jul 21
Waxing Gibbous
Jul 22
Full
Jul 29
Last Quarter
Aug 6
New
Aug 14
First Quarter

Hourly Weather History & Observations

Time (CDT) Temp. Heat Index Dew Point Humidity Pressure Visibility Wind Dir Wind Speed Gust Speed Precip Events Conditions
12:15 AM 69.8 °F - 62.6 °F 78% 29.92 in 10.0 mi Calm Calm - N/A   Unknown
12:35 AM 69.8 °F - 62.6 °F 78% 29.93 in 10.0 mi Calm Calm - N/A   Unknown
12:55 AM 68.0 °F - 62.6 °F 83% 29.92 in 10.0 mi Calm Calm - N/A   Unknown
1:15 AM 68.0 °F - 62.6 °F 83% 29.92 in 10.0 mi Calm Calm - N/A   Unknown
1:35 AM 66.2 °F - 60.8 °F 83% 29.92 in 10.0 mi Calm Calm - N/A   Unknown
1:55 AM 66.2 °F - 60.8 °F 83% 29.93 in 10.0 mi Calm Calm - N/A   Unknown
2:15 AM 66.2 °F - 60.8 °F 83% 29.93 in 10.0 mi Calm Calm - N/A   Unknown
2:35 AM 66.2 °F - 60.8 °F 83% 29.92 in 10.0 mi Calm Calm - N/A   Unknown
2:55 AM 66.2 °F - 60.8 °F 83% 29.92 in 10.0 mi Calm Calm - N/A   Unknown
3:15 AM 66.2 °F - 60.8 °F 83% 29.91 in 10.0 mi Calm Calm - N/A   Unknown
3:35 AM 66.2 °F - 60.8 °F 83% 29.91 in 10.0 mi Calm Calm - N/A   Unknown
3:55 AM 64.4 °F - 60.8 °F 88% 29.92 in 10.0 mi Calm Calm - N/A   Unknown
4:15 AM 66.2 °F - 60.8 °F 83% 29.91 in 10.0 mi Calm Calm - N/A   Unknown
4:35 AM 64.4 °F - 60.8 °F 88% 29.91 in 10.0 mi Calm Calm - N/A   Unknown
4:55 AM 64.4 °F - 60.8 °F 88% 29.90 in 10.0 mi Calm Calm - N/A   Unknown
5:15 AM 64.4 °F - 60.8 °F 88% 29.90 in 10.0 mi Calm Calm - N/A   Unknown
5:35 AM 64.4 °F - 60.8 °F 88% 29.90 in 10.0 mi Calm Calm - N/A   Unknown
5:55 AM 64.4 °F - 60.8 °F 88% 29.90 in 10.0 mi Calm Calm - N/A   Unknown
6:15 AM 64.4 °F - 60.8 °F 88% 29.91 in 10.0 mi Calm Calm - N/A   Unknown
6:35 AM 66.2 °F - 60.8 °F 83% 29.91 in 10.0 mi Calm Calm - N/A   Unknown
6:55 AM 66.2 °F - 62.6 °F 88% 29.92 in 10.0 mi Calm Calm - N/A   Unknown
7:15 AM 66.2 °F - 62.6 °F 88% 29.92 in 10.0 mi Calm Calm - N/A   Unknown
7:35 AM 68.0 °F - 62.6 °F 83% 29.92 in 10.0 mi Calm Calm - N/A   Unknown
7:55 AM 69.8 °F - 64.4 °F 83% 29.92 in 10.0 mi Calm Calm - N/A   Unknown
8:15 AM 69.8 °F - 64.4 °F 83% 29.92 in 10.0 mi Calm Calm - N/A   Unknown
8:35 AM 71.6 °F - 64.4 °F 78% 29.92 in 10.0 mi Calm Calm - N/A   Unknown
8:55 AM 73.4 °F - 66.2 °F 78% 29.92 in 10.0 mi SE 4.6 mph - N/A   Unknown
9:15 AM 75.2 °F - 66.2 °F 73% 29.92 in 10.0 mi ESE 3.5 mph - N/A   Unknown
9:35 AM 78.8 °F - 66.2 °F 65% 29.92 in 10.0 mi SSE 4.6 mph - N/A   Unknown
9:55 AM 80.6 °F 82.7 °F 66.2 °F 61% 29.92 in 10.0 mi South 5.8 mph - N/A   Unknown
10:15 AM 78.8 °F - 66.2 °F 65% 29.92 in 10.0 mi SSE 4.6 mph - N/A   Unknown
10:35 AM 80.6 °F 82.7 °F 66.2 °F 61% 29.91 in 10.0 mi SE 5.8 mph - N/A   Unknown
10:55 AM 80.6 °F 82.7 °F 66.2 °F 61% 29.92 in 10.0 mi SSE 6.9 mph - N/A   Unknown
11:15 AM 82.4 °F 84.6 °F 66.2 °F 58% 29.91 in 10.0 mi SE 8.1 mph - N/A   Unknown
11:35 AM 82.4 °F 84.6 °F 66.2 °F 58% 29.91 in 10.0 mi SSE 6.9 mph - N/A   Unknown
11:55 AM 82.4 °F 83.9 °F 64.4 °F 54% 29.90 in 10.0 mi SE 8.1 mph - N/A   Unknown
12:15 PM 84.2 °F 85.6 °F 64.4 °F 51% 29.90 in 10.0 mi SE 8.1 mph - N/A   Unknown
1:15 PM 84.2 °F 87.3 °F 68.0 °F 58% 29.89 in 10.0 mi SSE 11.5 mph 17.3 mph N/A   Unknown
1:35 PM 84.2 °F 88.4 °F 69.8 °F 62% 29.90 in 10.0 mi South 8.1 mph - N/A   Unknown
1:55 PM 82.4 °F 86.3 °F 69.8 °F 66% 29.90 in 10.0 mi South 8.1 mph - N/A   Unknown
2:15 PM 84.2 °F 87.3 °F 68.0 °F 58% 29.89 in 10.0 mi South 11.5 mph - N/A   Unknown
2:35 PM 82.4 °F 86.3 °F 69.8 °F 66% 29.89 in 10.0 mi SSE 10.4 mph - N/A   Unknown
2:55 PM 82.4 °F 85.4 °F 68.0 °F 62% 29.89 in 10.0 mi South 10.4 mph - N/A   Unknown
3:15 PM 80.6 °F 83.2 °F 68.0 °F 65% 29.88 in 10.0 mi SSE 8.1 mph - N/A   Unknown
3:35 PM 80.6 °F 83.2 °F 68.0 °F 65% 29.89 in 10.0 mi South 5.8 mph - N/A   Unknown
3:55 PM 78.8 °F - 69.8 °F 74% 29.88 in 10.0 mi SSW 6.9 mph - N/A Rain Light Rain
4:15 PM 77.0 °F - 69.8 °F 78% 29.87 in 10.0 mi SSW 8.1 mph - N/A Rain Light Rain
4:35 PM 75.2 °F - 69.8 °F 83% 29.86 in 10.0 mi SSW 5.8 mph - N/A Rain Light Rain
4:55 PM 75.2 °F - 69.8 °F 83% 29.86 in 10.0 mi South 6.9 mph - 0.02 in Rain Light Rain
5:15 PM 75.2 °F - 69.8 °F 83% 29.84 in 10.0 mi SSE 4.6 mph - N/A Rain Light Rain
5:35 PM 73.4 °F - 66.2 °F 78% 29.83 in 10.0 mi South 8.1 mph - 0.01 in Rain Light Rain
5:55 PM 73.4 °F - 66.2 °F 78% 29.86 in 10.0 mi SW 5.8 mph - 0.02 in Rain Light Rain
6:15 PM 71.6 °F - 64.4 °F 78% 29.82 in 10.0 mi South 15.0 mph - N/A Rain Light Rain
6:35 PM 69.8 °F - 64.4 °F 83% 29.82 in 10.0 mi South 11.5 mph - N/A   Light Drizzle
6:55 PM 69.8 °F - 62.6 °F 78% 29.82 in 10.0 mi South 5.8 mph - N/A   Unknown
7:15 PM 71.6 °F - 64.4 °F 78% 29.84 in 10.0 mi Calm Calm - N/A   Unknown
7:35 PM 71.6 °F - 64.4 °F 78% 29.84 in 10.0 mi ENE 4.6 mph - N/A   Unknown
7:55 PM 71.6 °F - 64.4 °F 78% 29.85 in 10.0 mi Calm Calm - N/A   Unknown
8:15 PM 71.6 °F - 64.4 °F 78% 29.85 in 10.0 mi East 5.8 mph - N/A   Unknown
8:35 PM 71.6 °F - 64.4 °F 78% 29.85 in 10.0 mi Calm Calm - N/A   Unknown
8:55 PM 69.8 °F - 62.6 °F 78% 29.85 in 10.0 mi Calm Calm - N/A   Unknown
9:15 PM 69.8 °F - 62.6 °F 78% 29.86 in 10.0 mi Calm Calm - N/A   Unknown
9:35 PM 68.0 °F - 62.6 °F 83% 29.87 in 10.0 mi Calm Calm - N/A   Unknown
9:55 PM 66.2 °F - 62.6 °F 88% 29.87 in 10.0 mi Calm Calm - N/A   Unknown
10:15 PM 66.2 °F - 62.6 °F 88% 29.88 in 10.0 mi Calm Calm - N/A   Unknown
10:35 PM 66.2 °F - 62.6 °F 88% 29.88 in 10.0 mi Calm Calm - N/A   Unknown
10:55 PM 66.2 °F - 60.8 °F 83% 29.88 in 7.0 mi Calm Calm - N/A   Unknown
11:15 PM 66.2 °F - 60.8 °F 83% 29.89 in 10.0 mi Calm Calm - N/A   Unknown
11:35 PM 66.2 °F - 60.8 °F 83% 29.89 in 10.0 mi Calm Calm - N/A   Unknown
11:55 PM 64.4 °F - 60.8 °F 88% 29.89 in 10.0 mi Calm Calm - N/A   Unknown